TESTR11 KNIP-KNIP

Flight info

Callsign TESTR11
Flight time 0h 7m
Altitude 31000
Route KJ90U/N0512F300
Aircraft T38/M-VD/C

Departure

Time 2026-04-24 22:35
Airport Jacksonville Naval Air Station (Towers Field) (KNIP)

Arrival

Time 2026-04-24 22:43
Airport Jacksonville Naval Air Station (Towers Field) (KNIP)
Time Latitude Longitude Altitude Speed Heading
2026-04-24 22:28 29.98722 -80.46126 19574 ft 415 kts 271°
2026-04-24 22:28 29.98688 -80.49410 20098 ft 408 kts 270°
2026-04-24 22:29 29.98510 -80.56097 19789 ft 427 kts 269°
2026-04-24 22:29 29.98349 -80.59551 19536 ft 438 kts 266°
2026-04-24 22:29 29.98074 -80.63088 19236 ft 444 kts 266°
2026-04-24 22:30 29.97770 -80.66662 18832 ft 452 kts 265°
2026-04-24 22:30 29.97453 -80.70291 18422 ft 456 kts 265°
2026-04-24 22:30 29.97143 -80.73944 18032 ft 459 kts 266°
2026-04-24 22:30 29.96851 -80.77612 17701 ft 459 kts 266°
2026-04-24 22:31 29.96551 -80.81265 17621 ft 454 kts 266°
2026-04-24 22:31 29.96259 -80.84879 17665 ft 450 kts 266°
2026-04-24 22:31 29.95978 -80.88511 17146 ft 463 kts 266°
2026-04-24 22:31 29.95677 -80.92301 16224 ft 485 kts 266°
2026-04-24 22:32 29.95352 -80.96259 15081 ft 507 kts 265°
2026-04-24 22:32 29.95016 -81.00401 13204 ft 533 kts 265°
2026-04-24 22:32 29.94673 -81.04789 9276 ft 582 kts 266°
2026-04-24 22:32 29.94394 -81.09445 8346 ft 561 kts 266°
2026-04-24 22:33 29.94159 -81.13797 7999 ft 524 kts 267°
2026-04-24 22:33 29.93980 -81.17863 7663 ft 493 kts 268°
2026-04-24 22:33 29.93819 -81.21729 7062 ft 473 kts 268°
2026-04-24 22:33 29.93682 -81.25429 6340 ft 459 kts 268°
2026-04-24 22:34 29.93574 -81.29007 6185 ft 432 kts 268°
2026-04-24 22:34 29.93497 -81.32339 6031 ft 399 kts 268°
2026-04-24 22:34 29.93434 -81.35403 5645 ft 366 kts 268°
2026-04-24 22:34 29.93385 -81.38231 5276 ft 340 kts 270°
2026-04-24 22:35 29.93491 -81.40851 5057 ft 316 kts 275°
2026-04-24 22:35 29.93768 -81.43358 4824 ft 317 kts 278°
2026-04-24 22:35 29.94166 -81.45893 4612 ft 325 kts 279°
2026-04-24 22:35 29.94615 -81.48476 4393 ft 333 kts 280°
2026-04-24 22:36 29.95148 -81.51104 4092 ft 339 kts 283°
2026-04-24 22:36 29.95731 -81.53751 3946 ft 340 kts 285°
2026-04-24 22:36 29.96415 -81.56355 3910 ft 337 kts 284°
2026-04-24 22:36 29.97063 -81.58963 3776 ft 340 kts 288°
2026-04-24 22:37 29.97883 -81.61507 3551 ft 346 kts 290°
2026-04-24 22:37 29.98758 -81.64108 3408 ft 349 kts 290°
2026-04-24 22:37 29.99657 -81.66717 3376 ft 349 kts 294°
2026-04-24 22:37 30.01036 -81.69021 3494 ft 354 kts 311°
2026-04-24 22:38 30.03233 -81.70216 3573 ft 362 kts
2026-04-24 22:38 30.05761 -81.69939 3594 ft 361 kts
2026-04-24 22:38 30.08160 -81.69548 3415 ft 334 kts
2026-04-24 22:38 30.10402 -81.69141 3013 ft 317 kts
2026-04-24 22:39 30.12548 -81.68773 2608 ft 306 kts
2026-04-24 22:39 30.14571 -81.68911 2267 ft 287 kts 312°
2026-04-24 22:39 30.15286 -81.70921 2072 ft 267 kts 284°
2026-04-24 22:39 30.15698 -81.73012 1700 ft 267 kts 279°
2026-04-24 22:40 30.16183 -81.75099 1535 ft 269 kts 290°
2026-04-24 22:40 30.17096 -81.76957 1530 ft 264 kts 316°
2026-04-24 22:40 30.18700 -81.77947 1423 ft 268 kts 346°
2026-04-24 22:40 30.20560 -81.78364 1311 ft 275 kts 351°
2026-04-24 22:41 30.22329 -81.77857 1354 ft 271 kts 55°
2026-04-24 22:41 30.22919 -81.75972 1216 ft 213 kts 79°
2026-04-24 22:41 30.23092 -81.74489 946 ft 162 kts 88°
2026-04-24 22:41 30.23133 -81.73694 793 ft 142 kts 92°
2026-04-24 22:42 30.23145 -81.72214 510 ft 138 kts 94°
2026-04-24 22:42 30.23158 -81.71095 371 ft 139 kts 89°
2026-04-24 22:42 30.23159 -81.69984 198 ft 140 kts 92°
2026-04-24 22:42 30.23165 -81.68874 62 ft 136 kts 92°
2026-04-24 22:43 30.23165 -81.67896 23 ft 102 kts 92°
2026-04-24 22:43 30.23167 -81.67342 27 ft 33 kts 91°
2026-04-24 22:43 30.23100 -81.67249 27 ft 6 kts 181°
2026-04-24 22:43 30.23076 -81.67251 26 ft 9 kts 197°
2026-04-24 22:44 30.23053 -81.67362 25 ft 21 kts 271°
2026-04-24 22:44 30.23052 -81.67551 25 ft 26 kts 268°
2026-04-24 22:44 30.23052 -81.67746 24 ft 23 kts 270°
2026-04-24 22:44 30.23046 -81.67953 24 ft 28 kts 267°
2026-04-24 22:45 30.23038 -81.68191 23 ft 31 kts 269°
2026-04-24 22:45 30.23032 -81.68444 23 ft 27 kts 268°
2026-04-24 22:45 30.22986 -81.68520 24 ft 6 kts 133°
2026-04-24 22:45 30.22963 -81.68522 24 ft 5 kts 239°
2026-04-24 22:46 30.22994 -81.68578 24 ft 0 kts 360°
2026-04-24 22:50 30.22997 -81.68578 24 ft 3 kts 360°
2026-04-24 22:50 30.23011 -81.68603 24 ft 6 kts 285°
2026-04-24 22:50 30.23023 -81.68706 24 ft 20 kts 271°
2026-04-24 22:51 30.23025 -81.68877 24 ft 22 kts 270°
2026-04-24 22:51 30.23023 -81.69061 25 ft 23 kts 263°
2026-04-24 22:51 30.23033 -81.69245 25 ft 20 kts 305°
2026-04-24 22:51 30.23109 -81.69259 24 ft 11 kts
2026-04-24 22:52 30.23158 -81.69202 23 ft 10 kts 89°
2026-04-24 22:52 30.23158 -81.69176 23 ft 23 kts 90°
2026-04-24 22:52 30.23161 -81.68594 21 ft 118 kts 90°
2026-04-24 22:52 30.23157 -81.67355 52 ft 186 kts 92°
2026-04-24 22:53 30.23191 -81.65731 1319 ft 183 kts 88°
2026-04-24 22:53 30.23244 -81.64389 3395 ft 172 kts 88°
2026-04-24 22:53 30.23322 -81.62808 3663 ft 229 kts 88°
2026-04-24 22:53 30.23424 -81.60705 3872 ft 292 kts 88°
2026-04-24 22:54 30.23447 -81.58204 4676 ft 324 kts 97°
2026-04-24 22:54 30.23088 -81.55648 6389 ft 317 kts 101°
2026-04-24 22:54 30.22656 -81.53199 8283 ft 309 kts 102°
2026-04-24 22:54 30.22145 -81.50762 9781 ft 317 kts 105°
2026-04-24 22:55 30.21466 -81.48278 10869 ft 332 kts 109°
2026-04-24 22:55 30.20639 -81.45740 12008 ft 340 kts 111°
2026-04-24 22:55 30.19759 -81.43166 13184 ft 350 kts 108°
2026-04-24 22:55 30.19154 -81.40350 13822 ft 374 kts 99°
2026-04-24 22:56 30.18674 -81.37300 14384 ft 395 kts 99°
2026-04-24 22:56 30.18161 -81.34112 14996 ft 414 kts 99°
2026-04-24 22:56 30.17601 -81.30713 15035 ft 446 kts 99°
2026-04-24 22:56 30.17016 -81.27066 14964 ft 477 kts 99°
2026-04-24 22:57 30.16426 -81.23229 14893 ft 504 kts 99°
2026-04-24 22:57 30.15790 -81.19120 14495 ft 535 kts 100°
2026-04-24 22:57 30.15080 -81.14780 14116 ft 557 kts 100°
2026-04-24 22:57 30.14338 -81.10366 14250 ft 559 kts 101°
2026-04-24 22:58 30.13556 -81.05971 14564 ft 554 kts 101°
2026-04-24 22:58 30.12799 -81.01672 15263 ft 531 kts 100°
2026-04-24 22:58 30.12106 -80.97671 17217 ft 481 kts 101°
2026-04-24 22:58 30.11421 -80.94080 19287 ft 443 kts 101°
2026-04-24 22:59 30.10768 -80.90649 20241 ft 432 kts 101°
2026-04-24 22:59 30.10118 -80.87254 20575 ft 437 kts 101°
2026-04-24 22:59 30.08723 -80.80152 20072 ft 471 kts 103°
2026-04-24 23:00 30.07908 -80.76425 19694 ft 486 kts 104°
2026-04-24 23:00 30.07023 -80.72624 19484 ft 497 kts 104°
2026-04-24 23:00 30.06088 -80.68633 17922 ft 535 kts 104°
2026-04-24 23:00 30.05073 -80.64393 16874 ft 556 kts 105°
2026-04-24 23:01 30.04105 -80.60053 16576 ft 558 kts 101°
2026-04-24 23:01 30.03473 -80.55708 16673 ft 540 kts 98°
2026-04-24 23:01 30.02913 -80.51521 17202 ft 513 kts 97°
2026-04-24 23:01 30.02438 -80.47600 18508 ft 471 kts 97°
2026-04-24 23:02 30.02007 -80.43871 18272 ft 478 kts 95°
2026-04-24 23:02 30.01700 -80.39955 17612 ft 488 kts 94°
2026-04-24 23:02 29.99845 -80.36957 17658 ft 483 kts 166°
2026-04-24 23:02 29.96516 -80.36766 17566 ft 484 kts 182°
2026-04-24 23:03 29.93159 -80.36794 17600 ft 481 kts 182°
2026-04-24 23:03 29.89825 -80.36773 17766 ft 475 kts 181°
2026-04-24 23:03 29.86534 -80.36756 17810 ft 474 kts 182°
2026-04-24 23:03 29.83221 -80.36790 17542 ft 478 kts 183°
2026-04-24 23:04 29.79884 -80.36906 17347 ft 481 kts 184°
2026-04-24 23:04 29.76540 -80.37076 17287 ft 480 kts 177°
2026-04-24 23:04 29.73870 -80.35088 17005 ft 483 kts 111°
2026-04-24 23:04 29.74315 -80.31501 16614 ft 477 kts 41°
2026-04-24 23:05 29.77360 -80.30384 16374 ft 474 kts
2026-04-24 23:05 29.80664 -80.30091 15912 ft 478 kts
2026-04-24 23:05 29.84000 -80.29776 15174 ft 485 kts
2026-04-24 23:05 29.87368 -80.29419 14836 ft 485 kts
2026-04-24 23:06 29.90507 -80.28326 14541 ft 490 kts 47°
2026-04-24 23:06 29.91147 -80.24719 14561 ft 482 kts 118°
2026-04-24 23:06 29.88483 -80.22928 14539 ft 462 kts 182°
2026-04-24 23:06 29.85246 -80.22992 14490 ft 466 kts 182°
2026-04-24 23:07 29.82018 -80.23092 14422 ft 473 kts 184°
2026-04-24 23:07 29.78696 -80.23285 14692 ft 470 kts 186°
2026-04-24 23:07 29.75511 -80.23617 15271 ft 459 kts 188°
2026-04-24 23:07 29.72365 -80.24125 16115 ft 443 kts 192°
2026-04-24 23:08 29.69393 -80.24779 17000 ft 428 kts 194°
2026-04-24 23:08 29.66555 -80.25559 17616 ft 422 kts 197°
2026-04-24 23:08 29.63681 -80.26501 17803 ft 428 kts 199°
2026-04-24 23:08 29.60821 -80.27591 17620 ft 440 kts 202°
2026-04-24 23:09 29.57917 -80.28868 17320 ft 453 kts 205°
2026-04-24 23:09 29.54987 -80.30313 17079 ft 464 kts 206°
2026-04-24 23:09 29.51979 -80.31712 17231 ft 464 kts 202°
2026-04-24 23:09 29.49986 -80.34093 17294 ft 439 kts 275°
2026-04-24 23:10 29.51939 -80.36318 17036 ft 442 kts
2026-04-24 23:10 29.54825 -80.35019 16970 ft 452 kts 24°
2026-04-24 23:10 29.57635 -80.33466 17139 ft 453 kts 24°
2026-04-24 23:10 29.60458 -80.31858 17349 ft 454 kts 24°
2026-04-24 23:11 29.63295 -80.30232 17453 ft 456 kts 25°
2026-04-24 23:11 29.66139 -80.28558 17400 ft 463 kts 25°
2026-04-24 23:11 29.69172 -80.28084 17202 ft 451 kts 329°
2026-04-24 23:11 29.70944 -80.30962 16740 ft 458 kts 292°
2026-04-24 23:12 29.72097 -80.34406 16669 ft 463 kts 290°
2026-04-24 23:12 29.73010 -80.37946 16877 ft 460 kts 271°
2026-04-24 23:12 29.71862 -80.41306 16900 ft 468 kts 224°
2026-04-24 23:12 29.68928 -80.42869 16975 ft 477 kts 193°
2026-04-24 23:13 29.65662 -80.43599 17121 ft 475 kts 192°
2026-04-24 23:13 29.62455 -80.44246 17902 ft 460 kts 192°
2026-04-24 23:13 29.59318 -80.44889 18406 ft 455 kts 192°
2026-04-24 23:13 29.56191 -80.45051 18670 ft 458 kts 159°
2026-04-24 23:14 29.54205 -80.42403 18691 ft 459 kts 93°
2026-04-24 23:14 29.55454 -80.39315 18524 ft 443 kts 24°
2026-04-24 23:14 29.58381 -80.38293 18524 ft 443 kts 13°
2026-04-24 23:14 29.61405 -80.37346 18192 ft 457 kts 13°
2026-04-24 23:15 29.64507 -80.36486 18312 ft 456 kts
2026-04-24 23:15 29.67567 -80.35773 19049 ft 439 kts
2026-04-24 23:15 29.70549 -80.35070 19496 ft 435 kts
2026-04-24 23:15 29.73514 -80.34303 19672 ft 438 kts 11°
2026-04-24 23:16 29.76498 -80.33491 19614 ft 445 kts 11°
2026-04-24 23:16 29.79549 -80.32588 19220 ft 460 kts 13°
2026-04-24 23:16 29.82672 -80.31508 18678 ft 478 kts 16°
2026-04-24 23:16 29.85828 -80.30238 18172 ft 492 kts 18°
2026-04-24 23:17 29.89010 -80.28831 18420 ft 486 kts 19°
2026-04-24 23:17 29.92127 -80.27426 18864 ft 477 kts 19°
2026-04-24 23:17 29.95244 -80.26101 18813 ft 481 kts 17°
2026-04-24 23:17 29.98436 -80.24815 18525 ft 490 kts 18°
2026-04-24 23:18 30.01716 -80.23655 18256 ft 495 kts 11°
2026-04-24 23:18 30.05098 -80.22775 18029 ft 499 kts 11°
2026-04-24 23:18 30.08479 -80.22007 18105 ft 488 kts 348°
2026-04-24 23:18 30.11215 -80.24039 18208 ft 472 kts 301°
2026-04-24 23:19 30.12560 -80.27434 18675 ft 459 kts 288°
2026-04-24 23:19 30.13416 -80.30907 19489 ft 438 kts 283°
2026-04-24 23:19 30.13137 -80.34152 21220 ft 405 kts 236°
2026-04-24 23:19 30.10835 -80.35868 23040 ft 405 kts 191°
2026-04-24 23:20 30.08040 -80.36316 24327 ft 409 kts 189°
2026-04-24 23:20 30.05157 -80.36634 25017 ft 420 kts 180°
2026-04-24 23:20 30.02392 -80.35884 26807 ft 398 kts 154°
2026-04-24 23:20 30.00327 -80.33940 28642 ft 383 kts 123°
2026-04-24 23:21 29.99225 -80.31084 28730 ft 409 kts 97°
2026-04-24 23:21 29.99315 -80.27717 28577 ft 433 kts 70°
2026-04-24 23:21 30.00209 -80.25606 28722 ft 438 kts 46°
2026-04-24 23:21 30.02529 -80.23361 28797 ft 453 kts 33°
2026-04-24 23:22 30.05190 -80.21206 28824 ft 476 kts 32°
2026-04-24 23:22 30.08293 -80.20571 29298 ft 464 kts 335°
2026-04-24 23:22 30.10537 -80.23060 30092 ft 456 kts 299°
2026-04-24 23:22 30.11936 -80.26406 30297 ft 472 kts 291°
2026-04-24 23:23 30.12952 -80.30075 30154 ft 486 kts 283°
2026-04-24 23:23 30.13654 -80.33945 30027 ft 497 kts 281°
2026-04-24 23:23 30.14341 -80.37883 30201 ft 499 kts 282°
2026-04-24 23:23 30.15088 -80.41782 30813 ft 491 kts 281°
2026-04-24 23:24 30.15621 -80.45626 31649 ft 480 kts 276°
2026-04-24 23:24 30.15838 -80.49456 32190 ft 478 kts 272°
2026-04-24 23:24 30.15881 -80.53362 31594 ft 498 kts 270°
2026-04-24 23:24 30.15815 -80.57453 30905 ft 519 kts 268°
2026-04-24 23:25 30.15649 -80.61640 31158 ft 517 kts 268°
2026-04-24 23:25 30.15456 -80.65776 31620 ft 515 kts 266°
2026-04-24 23:25 30.15167 -80.69937 31309 ft 528 kts 266°
2026-04-24 23:25 30.14907 -80.74279 30205 ft 555 kts 266°
2026-04-24 23:26 30.14545 -80.78837 27593 ft 588 kts 265°
2026-04-24 23:26 30.14200 -80.83684 26211 ft 611 kts 266°
2026-04-24 23:26 30.13831 -80.88545 26262 ft 603 kts 265°
2026-04-24 23:26 30.13378 -80.93341 25811 ft 601 kts 262°
2026-04-24 23:27 30.12430 -80.98120 24312 ft 624 kts 251°
2026-04-24 23:27 30.10552 -81.02683 23717 ft 633 kts 242°
2026-04-24 23:27 30.08288 -81.06978 24104 ft 619 kts 237°
2026-04-24 23:27 30.05910 -81.11096 23493 ft 619 kts 244°
2026-04-24 23:28 30.04553 -81.15885 19907 ft 648 kts 262°
2026-04-24 23:28 30.04302 -81.21256 14855 ft 698 kts 277°
2026-04-24 23:28 30.05632 -81.26711 9164 ft 721 kts 297°
2026-04-24 23:28 30.08695 -81.31410 4990 ft 740 kts 319°
2026-04-24 23:29 30.13011 -81.34322 3560 ft 703 kts 341°
2026-04-24 23:29 30.17476 -81.35740 2151 ft 633 kts 345°
2026-04-24 23:29 30.21667 -81.36863 485 ft 604 kts 351°
2026-04-24 23:29 30.25233 -81.35949 2518 ft 492 kts 49°
2026-04-24 23:30 30.25294 -81.32607 3917 ft 434 kts 126°
2026-04-24 23:30 30.23822 -81.29985 6698 ft 345 kts 121°
2026-04-24 23:30 30.22458 -81.27565 7527 ft 372 kts 124°
2026-04-24 23:30 30.20804 -81.25062 7054 ft 405 kts 136°
2026-04-24 23:31 30.18481 -81.23366 7731 ft 377 kts 174°
2026-04-24 23:31 30.15878 -81.23402 8200 ft 384 kts 189°
2026-04-24 23:31 30.13094 -81.24053 6095 ft 443 kts 202°
2026-04-24 23:31 30.10167 -81.25607 3352 ft 481 kts 209°
2026-04-24 23:32 30.07079 -81.27596 482 ft 522 kts 207°
2026-04-24 23:32 30.06177 -81.28168 442 ft 503 kts 207°
2026-04-24 23:32 30.04499 -81.30626 2794 ft 373 kts 286°
2026-04-24 23:32 30.06201 -81.32806 3144 ft 376 kts 329°
2026-04-24 23:33 30.08599 -81.33682 4070 ft 339 kts 347°
2026-04-24 23:33 30.10896 -81.34382 3432 ft 350 kts 352°
2026-04-24 23:33 30.13337 -81.34759 2991 ft 362 kts 351°
2026-04-24 23:33 30.15878 -81.35201 2709 ft 374 kts 352°
2026-04-24 23:34 30.18499 -81.35681 2582 ft 385 kts 349°
2026-04-24 23:34 30.21131 -81.36296 2547 ft 382 kts 346°
2026-04-24 23:34 30.23684 -81.37010 2709 ft 374 kts 345°
2026-04-24 23:34 30.26224 -81.37738 2435 ft 381 kts 346°
2026-04-24 23:35 30.28836 -81.38347 2175 ft 385 kts 351°
2026-04-24 23:35 30.31504 -81.38716 1983 ft 387 kts 355°
2026-04-24 23:35 30.34221 -81.38888 1490 ft 395 kts 359°
2026-04-24 23:35 30.37037 -81.39150 706 ft 408 kts 351°
2026-04-24 23:36 30.39346 -81.40606 1450 ft 370 kts 300°
2026-04-24 23:36 30.40005 -81.43449 1013 ft 375 kts 270°
2026-04-24 23:36 30.40014 -81.46494 666 ft 381 kts 266°
2026-04-24 23:36 30.39781 -81.49566 328 ft 384 kts 258°
2026-04-24 23:37 30.39209 -81.52546 514 ft 371 kts 253°
2026-04-24 23:37 30.38573 -81.55341 921 ft 348 kts 257°
2026-04-24 23:37 30.39075 -81.60805 910 ft 338 kts 283°
2026-04-24 23:38 30.39748 -81.63333 1106 ft 328 kts 288°
2026-04-24 23:38 30.40488 -81.65770 1467 ft 310 kts 266°
2026-04-24 23:38 30.39522 -81.67835 1606 ft 297 kts 221°
2026-04-24 23:38 30.38007 -81.69460 1607 ft 296 kts 220°
2026-04-24 23:39 30.36463 -81.71039 1571 ft 298 kts 221°
2026-04-24 23:39 30.34922 -81.72672 1448 ft 303 kts 220°
2026-04-24 23:39 30.33209 -81.74229 1396 ft 301 kts 213°
2026-04-24 23:39 30.31564 -81.75520 1510 ft 292 kts 212°
2026-04-24 23:40 30.29874 -81.76768 1699 ft 286 kts 211°
2026-04-24 23:40 30.28164 -81.77957 1698 ft 287 kts 208°
2026-04-24 23:40 30.26403 -81.78960 2002 ft 275 kts 196°
2026-04-24 23:40 30.24573 -81.78963 2392 ft 265 kts 160°
2026-04-24 23:41 30.23159 -81.77679 2611 ft 265 kts 119°
2026-04-24 23:41 30.22782 -81.75660 2258 ft 234 kts 89°
2026-04-24 23:41 30.22910 -81.73989 1677 ft 189 kts 86°
2026-04-24 23:41 30.23058 -81.72604 1191 ft 159 kts 86°
2026-04-24 23:42 30.23167 -81.71419 785 ft 136 kts 92°
2026-04-24 23:42 30.23171 -81.70340 474 ft 138 kts 92°
2026-04-24 23:42 30.23171 -81.69216 128 ft 140 kts 92°
2026-04-24 23:42 30.23167 -81.68184 20 ft 101 kts 91°
2026-04-24 23:43 30.23167 -81.67635 24 ft 44 kts 89°
2026-04-24 23:43 30.23103 -81.67484 27 ft 11 kts 180°
2026-04-24 23:43 30.23052 -81.67517 25 ft 7 kts 274°
2026-04-24 23:43 30.23045 -81.67584 27 ft 9 kts 225°
2026-04-24 23:44 30.22995 -81.67594 25 ft 2 kts 179°
2026-04-24 23:44 30.22988 -81.67594 25 ft 0 kts 179°
2026-04-24 23:52 30.22987 -81.67594 25 ft 1 kts 183°
2026-04-24 23:52 30.22976 -81.67638 25 ft 7 kts 328°
2026-04-24 23:53 30.23021 -81.67645 25 ft 7 kts 315°
2026-04-24 23:53 30.23060 -81.67735 24 ft 15 kts 289°
2026-04-24 23:53 30.23051 -81.67857 24 ft 16 kts 265°
2026-04-24 23:53 30.23045 -81.68003 23 ft 19 kts 267°
2026-04-24 23:54 30.23042 -81.68109 23 ft 21 kts 267°
2026-04-24 23:54 30.23037 -81.68281 23 ft 22 kts 266°
2026-04-24 23:54 30.23027 -81.68468 23 ft 24 kts 267°
2026-04-24 23:54 30.23025 -81.68666 24 ft 25 kts 270°
2026-04-24 23:55 30.23024 -81.68877 24 ft 27 kts 270°
2026-04-24 23:55 30.23024 -81.69097 25 ft 28 kts 270°
2026-04-24 23:55 30.23048 -81.69258 24 ft 8 kts 357°
2026-04-24 23:55 30.23060 -81.69258 24 ft 0 kts
2026-04-24 23:56 30.23067 -81.69258 25 ft 5 kts
2026-04-24 23:56 30.23117 -81.69258 24 ft 9 kts
2026-04-24 23:56 30.23159 -81.69203 23 ft 11 kts 90°
2026-04-24 23:56 30.23159 -81.69148 23 ft 3 kts 90°
2026-04-24 23:57 30.23159 -81.68752 23 ft 97 kts 89°
2026-04-24 23:57 30.23149 -81.67649 28 ft 172 kts 93°
2026-04-24 23:57 30.23159 -81.65994 524 ft 232 kts 90°
2026-04-24 23:57 30.24037 -81.64521 2026 ft 258 kts 11°
2026-04-24 23:58 30.25626 -81.65183 3772 ft 241 kts 297°
2026-04-24 23:58 30.26279 -81.66792 5949 ft 213 kts 291°
2026-04-24 23:58 30.26778 -81.68622 6355 ft 270 kts 281°
2026-04-24 23:58 30.27037 -81.70977 5921 ft 315 kts 274°
2026-04-24 23:59 30.27166 -81.73714 4439 ft 375 kts 271°
2026-04-24 23:59 30.26571 -81.76851 3122 ft 424 kts 233°
2026-04-24 23:59 30.23924 -81.78155 2901 ft 438 kts 165°
2026-04-24 23:59 30.22692 -81.75120 2440 ft 492 kts 83°
2026-04-25 00:00 30.23160 -81.70975 509 ft 582 kts 87°
2026-04-25 00:00 30.23291 -81.66317 521 ft 562 kts 72°
2026-04-25 00:00 30.26075 -81.65281 1882 ft 452 kts 312°
2026-04-25 00:00 30.27382 -81.68194 2327 ft 373 kts 284°
2026-04-25 00:01 30.27686 -81.70981 2453 ft 332 kts 258°
2026-04-25 00:01 30.26798 -81.72781 2354 ft 211 kts 214°
2026-04-25 00:01 30.25546 -81.73288 1928 ft 180 kts 182°
2026-04-25 00:01 30.24393 -81.73089 1546 ft 166 kts 155°
2026-04-25 00:02 30.23514 -81.72258 1200 ft 163 kts 125°
2026-04-25 00:02 30.23161 -81.71053 726 ft 162 kts 95°
2026-04-25 00:02 30.23176 -81.69740 279 ft 157 kts 92°
2026-04-25 00:02 30.23171 -81.68526 21 ft 142 kts 93°
2026-04-25 00:03 30.23167 -81.67610 24 ft 76 kts 90°
2026-04-25 00:03 30.23169 -81.67222 26 ft 29 kts 89°
2026-04-25 00:03 30.23167 -81.67109 25 ft 1 kts 173°
2026-04-25 00:03 30.23163 -81.67147 25 ft 12 kts 274°
2026-04-25 00:04 30.23132 -81.67255 26 ft 16 kts 192°
2026-04-25 00:04 30.23054 -81.67289 25 ft 14 kts 271°
2026-04-25 00:04 30.23054 -81.67429 25 ft 19 kts 269°
2026-04-25 00:04 30.23042 -81.67578 27 ft 14 kts 231°
2026-04-25 00:05 30.22995 -81.67594 25 ft 4 kts 179°
2026-04-25 00:05 30.22987 -81.67594 25 ft 0 kts 179°